Regional Weather Roundup
Issued by NWS Pendleton, OR

Home | Current Version | Previous Version | Text Only | Print | Product List | Glossary On
Versions: 1 2 3 4 5 6 7 8 9 10 11 12 13 14 15 16 17 18 19 20 21 22 23 24 25 26 27 28 29 30 31 32 33 34 35 36 37 38 39 40 41 42 43 44 45 46 47 48 49 50
321
ASUS46 KPDT 101125
RWRPDT
PENDLETON REGIONAL WEATHER ROUNDUP
NATIONAL WEATHER SERVICE PENDLETON OREGON
300 AM PST WED FEB 10 2016

NOTE: FAIR INDICATES FEW OR NO CLOUDS BELOW 12,000 FEET WITH NO
SIGNIFICANT WEATHER AND/OR OBSTRUCTIONS TO VISIBILITY.

# INDICATES UNOFFICIAL STATION AND DATA

WAZ520-101210-
EAST SLOPES OF WASHINGTON CASCADES

CITY            SKY/WX      TMP DP  RH  WIND    PRES   REMARKS
#CLE ELUM HS    N/A         28  25  88  CALM    30.18F
#CLE ELUM 2NW   N/A         26  26  100 W1      N/A
#CLE ELUM LAKE  N/A         32  31  96  CALM    30.25F
#CLIFFDEL 2NW   N/A         28  27  96  CALM    N/A
#GLENWOOD       N/A         27  26  96  CALM    30.29F
#MANASTASH CYN  N/A         28  24  85  CALM    30.17F
#NELSON 3SW     N/A         30  29  96  CALM    30.50F
#NILE           N/A         28  27  96  W1      29.56F
#RONALD 2NW     N/A         33  N/A N/A CALM    30.06S
#SNOWDEN        N/A         31  24  75  CALM    N/A
#TEANAWAY 4NE   N/A         28  27  96  CALM    N/A
#TROUT LAKE 1NE N/A         29  28  96  W1      30.28F
#TROUT LAKE 1E  N/A         28  27  96  CALM    30.18F
$$

WAZ521-101210-
SIMCOE HIGHLANDS

CITY            SKY/WX      TMP DP  RH  WIND    PRES   REMARKS
#BICKLETON HS   N/A         39  27  62  CALM    N/A
#CENTERVILLE 1SWN/A         29  27  92  CALM    30.24F
#GOLDENDALE     N/A         32  31  96  E2      N/A
#GOLDENDALE 1NE N/A         31  26  81  VRB2    N/A
#GOODNOE HILLS  N/A         38  32  79  NE2     30.13F
#LYLE 6NE       N/A         35  33  92  N2      30.23F
$$

WAZ026-101210-
KITTITAS VALLEY

CITY            SKY/WX      TMP DP  RH  WIND    PRES   REMARKS
ELLENSBURG AP   FRZFOG      25  22  88  NE3     30.25S VSB 1/4
#ELLENSBURG CWU N/A         23  21  92  CALM    30.28F
#ELLENSBURG 3NE N/A         24  23  96  CALM    30.24S
#ELLENSBURG     N/A         26  26  100 CALM    N/A
#ELLENSBURG 1E  N/A         21  N/A N/A CALM    N/A
#KITTITAS 4N    N/A         25  22  88  CALM    30.26F
#KITTITAS 3S    N/A         17  16  96  CALM    30.35F
#THORP 6N       N/A         30  29  96  CALM    30.30F
$$

WAZ027-101210-
YAKIMA VALLEY

CITY            SKY/WX      TMP DP  RH  WIND    PRES   REMARKS
SUNNYSIDE AP    CLEAR       29  29  100 CALM    30.26F
YAKIMA AIRPORT  PTCLDY      31  27  85  W7      30.26S
YAKIMA-VAGABOND CLEAR       32  29  89  NE1     30.23
#DONALD 2NE     N/A         38  27  64  CALM    29.09F
#GRANDVIEW      N/A         31  28  88  CALM    30.30F
#MABTON         N/A         32  31  96  CALM    30.25F
#MOXEE 2E       N/A         34  31  89  CALM    30.23
#NACHES 2SW     N/A         35  32  89  CALM    30.23F
#OUTLOOK DOT    N/A         N/A N/A N/A CALM    N/A
#SELAH 8E       N/A         29  29  100 E2      N/A
#TERRACE HTS    N/A         30  28  92  CALM    30.25F
#TOPPENISH      N/A         32  30  92  CALM    30.19F
#WEST VALLEY    N/A         32  29  89  CALM    30.27F
#W YAKIMA       N/A         34  31  89  NW1     30.29S
#WHITE SWAN 5E  N/A         30  28  92  CALM    30.29F
$$

WAZ028-101210-
LOWER COLUMBIA BASIN...WASHINGTON

CITY            SKY/WX      TMP DP  RH  WIND    PRES   REMARKS
HANFORD         MOCLEAR     34  31  89  N8      30.25S
PASCO           CLEAR       29  27  92  NW3     30.29S
PROSSER AWOS    N/A         28  28  100 NE1     30.29F
RICHLAND AWOS   N/A         31  31  100 CALM    30.29S FOG
#BENTON CITY    N/A         31  29  92  CALM    30.20F
#CONNELL 5N     N/A         33  32  96  N1      30.30R
#ELTOPIA 6NW    N/A         36  34  92  CALM    29.22F
#KAHLOTUS       N/A         32  31  96  S6      30.29F
#KENNEWICK 3S   N/A         35  32  89  CALM    30.29S
#PATERSON       N/A         33  31  92  CALM    30.27F
#PROSSER        N/A         35  31  85  CALM    30.28F
#SAGEMOOR 2W    N/A         35  32  89  CALM    30.13F
#TOUCHET 2S     N/A         28  26  92  CALM    30.29S
#WEST PASCO     N/A         31  27  85  CALM    30.30S
$$

WAZ029-101210-
FOOTHILLS OF THE BLUES...WASHINGTON

CITY            SKY/WX      TMP DP  RH  WIND    PRES   REMARKS
WALLA WALLA AP  MOCLDY      35  32  89  E5      30.24F
#CLYDE 6NW      N/A         35  34  96  CALM    30.29F
#DAYTON SCHOOL  N/A         34  28  78  NE1     30.24F
#LOWDEN 2SE     N/A         28  27  96  CALM    30.26R
#PLEASANT VIEW 1N/A         35  34  96  CALM    30.33S
#PRESCOTT       N/A         34  33  96  CALM    30.28F
#WHITMAN COLLEGEN/A         38  34  85  CALM    30.33S
#WAITSBURG 5S   N/A         36  34  92  N2      30.37F
#WAITSBURG 8N   N/A         38  29  70  W2      30.12R
#WALLA WALLA U  N/A         33  31  92  CALM    30.29F
#WHITMAN MISSIONN/A         31  29  92  CALM    30.31F
$$

WAZ030-101210-
BLUE MOUNTAINS...WASHINGTON

CITY            SKY/WX      TMP DP  RH  WIND    PRES   REMARKS
#DIXIE 5SE      N/A         49  32  52  SE3     30.14F
#SKI BLUEWOOD   N/A         34  29  82  CALM    30.24S
$$

ORZ009-041-WAZ024-101210-
COLUMBIA RIVER GORGE

CITY            SKY/WX      TMP DP  RH  WIND    PRES   REMARKS
HOOD RIVER AP   PTCLDY      34  32  92  CALM    30.26F
THE DALLES AP   MOCLDY      34  31  89  CALM    30.27F
#ARLINGTON AIRPON/A         37  35  92  CALM    30.28F
#ARLINGTON HS   N/A         32  30  92  SW2     30.19F
#CELILO DOT     N/A         38  33  82  S8      N/A
#LYLE           N/A         39  36  89  CALM    30.29F
#MARYHILL 2W    N/A         37  37  100 CALM    N/A
#MOSIER 1S      N/A         34  30  85  CALM    30.26S
#MURDOCK        N/A         36  34  92  CALM    30.24F
#RUFUS DOT      N/A         37  35  92  S7      N/A

$$

ORZ510-101210-
NORTH CENTRAL OREGON

CITY            SKY/WX      TMP DP  RH  WIND    PRES   REMARKS
#CHENOWITH 1W   N/A         39  35  85  E2      N/A
#COW CYN RST AREN/A         42  35  76  SW2     N/A
#GRASS VALLEY 1SN/A         34  32  92  CALM    30.27F
#KENT DOT       N/A         37  30  75  N7      N/A
#MAUPIN SCHOOL  N/A         35  32  89  CALM    30.27F
#MORO SCHOOL    N/A         32  32  100 CALM    30.22F
#SHANIKO 5WSW   N/A         40  30  67  SE13    N/A    WCI 32
#SHANIKO 4NW    N/A         41  35  79  S9      30.19F
#TYGH VALLEY 2NEN/A         33  31  92  CALM    30.27F
#WAPANITIA AIRPON/A         31  29  92  CALM    30.29F
#WASCO DOT      N/A         29  27  92  SE1     N/A
#WASCO AIRPORT  N/A         35  32  89  CALM    N/A
#WASCO 5NE      N/A         31  29  92  CALM    30.28F
$$

ORZ511-101210-
CENTRAL OREGON

CITY            SKY/WX      TMP DP  RH  WIND    PRES   REMARKS
BEND AIRPORT    MOCLDY      37  32  82  E9      30.21F
MADRAS AIRPORT  CLOUDY      30  30  100 SE3     30.23F
REDMOND AIRPORT MOCLDY      37  30  75  E6      30.21F
#ASHWOOD SCHOOL N/A         31  30  96  CALM    30.16F
#BEND 6E        N/A         36  28  72  CALM    30.19F
#BEND 1SW       N/A         38  33  82  SW2     N/A
#BEND-KIM LN    N/A         33  30  89  CALM    30.19F
#LAKE BILLY CHINN/A         35  N/A N/A NW3     30.28F
#MADRAS         N/A         33  32  96  S3      N/A
#POWELL BUTTE 3EN/A         43  33  67  E10     N/A
#PRINEVILLE 3N  N/A         32  29  89  CALM    30.26F
#WARM SPRINGS   N/A         29  27  92  CALM    30.21F

$$


ORZ509-101210-
EAST SLOPES OF OREGON CASCADES

CITY            SKY/WX      TMP DP  RH  WIND    PRES   REMARKS
SISTERS AWOS    N/A         28  27  96  CALM    30.17F
#BLUE BOX PASS  N/A         45  N/A N/A SW2     N/A
#BLACK BUTTE RNCN/A         30  29  96  CALM    30.27F
#CAMP SHERMAN   N/A         27  24  88  CALM    30.30F
#LA PINE 4NW    N/A         26  22  85  CALM    30.35F
#LAVA BUTTE DOT N/A         35  30  82  SE1     N/A
#SISTERS AIRPOR N/A         27  27  100 CALM    30.17S
#SISTERS ODOT   N/A         28  N/A N/A CALM    N/A
#SISTERS 1NW    N/A         28  26  92  N7      N/A
#SISTERS 3N     N/A         27  21  78  CALM    30.21F
#SUNRIVER       N/A         28  26  92  CALM    30.32F
#SUTTLE LK DOT  N/A         26  26  100 W21G30  N/A    WCI 12
#TUMALO 3W      N/A         39  34  82  CALM    30.11F
#WANOGA BUTTE D N/A         38  28  67  CALM    N/A

$$

ORZ044-101210-
LOWER COLUMBIA BASIN...OREGON

CITY            SKY/WX      TMP DP  RH  WIND    PRES   REMARKS
HERMISTON       CLEAR       29  28  96  SE3     30.26S
#BOARDMAN SCHOOLN/A         29  27  92  CALM    30.29F
#BOARDMAN 8SW   N/A         32  30  92  CALM    30.27F
#ECHO 8SW       N/A         32  28  85  S1      30.27S
#I-84 EX 198 DOTN/A         36  34  92  NE3     N/A
#IONE SCHOOL    N/A         30  19  63  CALM    30.22F
#IRRIGON 4NW    N/A         29  29  100 CALM    N/A
#UMATILLA SCHOOLN/A         26  26  100 S1      30.33F
#UMATILLA       N/A         31  27  85  E1      30.23F
$$

ORZ507-101210-
NORTHERN FOOTHILLS OF THE BLUES

CITY            SKY/WX      TMP DP  RH  WIND    PRES   REMARKS
PENDLETON AIRPT PTCLDY      31  29  92  S3      30.24S
#ADAMS 3WNW     N/A         30  28  92  CALM    30.30R
#ATHENA         N/A         33  31  92  CALM    30.32F
#CAYUSE         N/A         36  34  92  CALM    30.28F
#HELIX SCHOOL   N/A         32  29  89  CALM    30.29S
#HELIX 3N       N/A         39  33  79  N2      30.19S
#HELIX 6SW      N/A         32  30  92  E1      30.23R
#HOLDMAN 5SE    N/A         32  30  92  SE2     30.22S
#HOLDMAN 6E     N/A         35  32  89  CALM    30.10R
#M-F GROVE ELEM N/A         34  30  85  CALM    30.22F
#M-FREEWATER 5SEN/A         34  32  92  CALM    30.23F
#PENDLETON DNTN N/A         30  23  75  CALM    30.28S
#PDT AQUATIC CTRN/A         30  23  75  CALM    30.22S
#PDT SUNRIDGE   N/A         28  27  96  CALM    30.27S
#PENDLETON 7NW  N/A         31  27  85  CALM    29.39
#PILOT ROCK     N/A         31  23  72  CALM    30.23R
#TUTUILLA       N/A         29  27  92  CALM    30.29S
#WESTON SCHOOL  N/A         38  32  79  CALM    30.19S

$$

ORZ508-101210-
SOUTHERN FOOTHILLS OF THE BLUES

CITY            SKY/WX      TMP DP  RH  WIND    PRES   REMARKS
LEXINGTON       CLEAR       34  32  92  SE7     30.26F
#CONDON SCHOOL  N/A         38  35  89  W2      30.14F
#CONDON 5W      N/A         45  32  60  SW6     30.16F
#FOSSIL SCHOOL  N/A         35  32  89  CALM    30.13F
#HEPPNER EOC    N/A         34  30  85  CALM    30.21F
#HEPPNER 4NE    N/A         36  32  85  E3      30.26F
#LEXINGTON 2SE  N/A         32  29  89  S3      30.19F
#MIKKALO        N/A         34  31  89  SE2     30.31F
#OLEX 4N        N/A         36  34  92  CALM    30.21F
#RUGGS 5NE      N/A         37  30  75  E1      30.33S
#RUGGS 2SW      N/A         45  31  58  S7      30.27F

$$

ORZ502-503-101210-
BLUE MOUNTAINS

CITY            SKY/WX      TMP DP  RH  WIND    PRES   REMARKS
MEACHAM         PTCLDY      36  27  69  CALM    30.26S
#BATTLE MTN DOT N/A         34  31  89  S8      N/A
#LADD CYN SMT   N/A         30  25  81  SE18    N/A    WCI 18
#LADD CREEK ODOTN/A         33  28  82  W9      N/A
#LONG CREEK HS  N/A         31  30  96  CALM    N/A
#N POWDER DOT   N/A         27  26  96  SW1     N/A
#PIKES PEAK     N/A         53  26  35  S13     27.99S
#TOLLGATE       N/A         32  27  82  CALM    30.09S
#TROY SCHOOL    N/A         34  31  89  SW7     30.28S
#UKIAH          N/A         25  23  92  CALM    30.29S
#WESTON 4E      N/A         41  30  65  E13     30.21S WCI 34
$$

ORZ505-101210-
JOHN DAY BASIN

CITY            SKY/WX      TMP DP  RH  WIND    PRES   REMARKS
JOHN DAY        MOCLDY      38  28  67  E8      30.28F
#DAYVILLE SCHOOLN/A         36  28  72  SE1     30.24S
#MITCHELL       N/A         39  34  82  CALM    30.35F
#MITCHELL 8NW   N/A         46  32  58  CALM    30.41F
#MONUMENT HS    N/A         31  26  81  CALM    30.20S
#MT. VERNON 5SE N/A         43  31  62  S2      30.22F
#SPRAY SCHOOL   N/A         35  N/A N/A CALM    N/A
#WINLOCK        N/A         39  29  67  CALM    30.20F
$$

ORZ506-101210-
OCHOCO AND JOHN DAY HIGHLANDS

CITY            SKY/WX      TMP DP  RH  WIND    PRES   REMARKS
#BUCK CREEK DOT N/A         29  29  100 E9      N/A
#HORSE RIDGE DO N/A         38  30  73  SE16    N/A    WCI 29
#KEYES SMT DOT  N/A         38  30  73  E10     N/A
#PAULINA SCHOOL N/A         50  37  61  CALM    30.22F
#PINE MTN OBS   N/A         46  26  45  S18     N/A    WCI 39
#PRAIRIE CITY   N/A         30  24  78  CALM    30.25F
#SENECA         N/A         17  N/A N/A CALM    N/A
#SENECA 9NW     N/A         20  18  92  CALM    30.46F
$$

ORZ049-101210-
GRANDE RONDE VALLEY

CITY            SKY/WX      TMP DP  RH  WIND    PRES   REMARKS
LA GRANDE       MOCLDY      37  27  67  S21G32  30.33S WCI 26
#COVE           N/A         30  29  96  CALM    30.35F
#COVE SCHOOL    N/A         31  28  88  CALM    30.32F
#COVE 6NW       N/A         33  29  85  SE6     30.24F
#ELGIN 3N       N/A         34  25  69  SW6     30.30S
#ELGIN 1E       N/A         34  28  78  CALM    N/A
#IMBLER SCHOOL  N/A         33  29  85  S12     30.28F WCI 24
#ISLAND CITY 4N N/A         43  41  93  CALM    30.12F
#LADD CYN DOT   N/A         36  30  79  S25     N/A    WCI 24
#UNION 1S       N/A         33  29  85  SW17G26 30.34F WCI 22
$$

ORZ050-101210-
WALLOWA COUNTY

CITY            SKY/WX      TMP DP  RH  WIND    PRES   REMARKS
JOSEPH AIRPORT  FRZFOG      27  27  100 CALM    30.31R VSB 1/4
#ENTERPRISE AP  N/A         28  26  92  CALM    30.22R
#ENTERPRISE HS  N/A         28  27  96  CALM    30.31R
#IMNAHA SCHOOL  N/A         35  30  82  N1      30.28F
#JOSEPH 3N      N/A         27  24  88  CALM    30.30R
#JOSEPH 3W      N/A         23  19  84  CALM    30.08S
#LOSTINE        N/A         29  28  96  CALM    30.28S
#MT HOWARD 8000 N/A         -75 N/A N/A S3      30.32F
#PROMISE 1S     N/A         28  26  92  CALM    30.50S
#WALLOWA SCHOOL N/A         30  29  96  CALM    30.29F



$$



USA.gov is the U.S. government's official web portal to all federal, state and local government web resources and services.